Date String (YYYY-MM-DD hh:mm:ss) UTC,Instrument flags,absolute air pressure of the measurement (hPa),sample flow rate (lpm),inlet stack bypass flow (lpm),air temperature of the measurement (°C),ambient temperature measured by the external sensor (°C),aerosol sample conditioner tube jacket temperature (°C),OPC LED temperature (°C),internal box temperature (°C),relative humidity of the measurement (%),span deviation,mass concentration of particles derived from Lorenz-Mie calculation of OPC scattering (μg/m³),mass concentration of particles derived from Lorenz-Mie calculation of OPC scattering (μg/m³),mass concentration of particles derived from Lorenz-Mie calculation of OPC scattering (μg/m³)
DateTimeUTC,F1_M11,P_M11,Q1_M11,Q2_M11,T1_M11,T2_M11,T3_M11,T4_M11,T5_M11,U1_M11,ZSPAN_M11,X0_M11,X2_M11,X1_M11
2023-12-15 07:00:00,SystemResetWarning,0833.2,5.00,000.00,018.7,017.7,000.0,027.1,020.0,23.6,0000.9,0019.60,0012.78,0012.17
2023-12-15 07:01:00,SystemResetWarning,0833.4,5.00,000.00,018.7,017.7,000.0,027.1,020.0,23.6,0000.8,0019.72,0012.81,0012.18
2023-12-15 07:02:00,SystemResetWarning,0833.0,5.00,000.00,018.7,017.7,000.0,027.1,020.0,23.5,0000.8,0019.91,0012.85,0012.19
2023-12-15 07:03:00,SystemResetWarning,0833.0,5.00,000.00,018.7,017.7,000.0,027.1,020.0,23.4,0000.8,0019.85,0012.84,0012.14
2023-12-15 07:04:00,SystemResetWarning,0833.3,5.00,000.00,018.7,017.7,000.0,027.1,020.0,23.4,0001.0,0018.71,0012.75,0012.06
2023-12-15 07:05:00,SystemResetWarning,0833.1,5.00,000.00,018.7,017.7,000.0,027.1,020.0,23.3,0001.0,0018.56,0012.58,0011.93
2023-12-15 07:06:00,SystemResetWarning,0832.9,5.00,000.00,018.7,017.7,000.0,027.1,020.0,23.3,0001.0,0019.01,0012.49,0011.85
2023-12-15 07:07:00,SystemResetWarning,0833.0,5.00,000.00,018.7,017.6,000.0,027.1,020.0,23.3,0001.0,0018.85,0012.40,0011.77
2023-12-15 07:08:00,SystemResetWarning,0832.9,5.00,000.00,018.7,017.7,000.0,027.1,020.2,23.3,0001.2,0018.82,0012.32,0011.69
2023-12-15 07:09:00,SystemResetWarning,0833.0,5.00,000.00,018.8,018.2,000.0,027.1,020.7,23.2,0001.1,0018.71,0012.22,0011.61
2023-12-15 07:10:00,SystemResetWarning,0833.1,4.99,000.00,019.0,018.9,000.0,027.1,021.0,23.0,0001.2,0018.67,0012.23,0011.62
2023-12-15 07:11:00,SystemResetWarning,0833.1,4.99,000.00,019.0,018.9,000.0,027.1,020.7,22.9,0001.1,0018.76,0012.16,0011.56
2023-12-15 07:12:00,SystemResetWarning,0833.4,4.99,000.00,019.0,018.8,000.0,027.2,020.5,22.7,0001.0,0018.71,0012.05,0011.47
2023-12-15 07:13:00,SystemResetWarning,0833.3,5.00,000.00,019.0,018.7,000.0,027.2,020.4,22.7,0000.8,0018.47,0011.95,0011.39
2023-12-15 07:14:00,SystemResetWarning,0832.9,5.00,000.00,019.0,018.5,000.0,027.2,020.3,22.7,0000.7,0018.04,0011.87,0011.35
2023-12-15 07:15:00,SystemResetWarning,0832.9,5.00,000.00,018.9,018.4,000.0,027.2,020.2,22.8,0000.5,0017.79,0011.87,0011.37
2023-12-15 07:16:00,SystemResetWarning,0832.9,5.00,000.00,018.9,018.3,000.0,027.2,020.1,22.9,0000.4,0017.85,0011.89,0011.38
2023-12-15 07:17:00,SystemResetWarning,0832.9,5.00,000.00,018.9,018.2,000.0,027.2,020.1,23.0,0000.3,0017.12,0011.86,0011.35
2023-12-15 07:18:00,SystemResetWarning,0833.0,5.00,000.00,018.8,018.1,000.0,027.2,020.0,23.1,0000.4,0017.41,0011.85,0011.33
2023-12-15 07:19:00,SystemResetWarning,0833.0,5.00,000.00,018.8,018.1,000.0,027.2,020.0,23.1,0000.5,0017.71,0011.79,0011.28
2023-12-15 07:20:00,SystemResetWarning,0832.9,5.00,000.00,018.8,018.0,000.0,027.2,020.0,23.1,0000.6,0018.37,0011.81,0011.30
2023-12-15 07:21:00,SystemResetWarning,0833.2,5.00,000.00,018.8,018.0,000.0,027.2,020.0,23.1,0000.5,0018.70,0011.75,0011.23
2023-12-15 07:22:00,SystemResetWarning,0833.1,5.01,000.00,018.8,017.9,000.0,027.2,020.0,23.1,0000.5,0018.45,0011.63,0011.11
2023-12-15 07:23:00,SystemResetWarning,0833.0,5.01,000.00,018.7,017.9,000.0,027.2,020.0,23.1,0000.9,0018.29,0011.43,0010.91
2023-12-15 07:24:00,SystemResetWarning,0833.0,5.00,000.00,018.7,017.8,000.0,027.2,020.0,23.1,0001.0,0018.47,0011.27,0010.74
2023-12-15 07:25:00,SystemResetWarning,0833.0,4.99,000.00,018.7,017.8,000.0,027.2,020.0,23.2,0001.2,0018.22,0011.08,0010.54
2023-12-15 07:26:00,SystemResetWarning,0833.0,5.00,000.00,018.7,017.8,000.0,027.2,020.0,23.2,0001.2,0017.94,0010.88,0010.33
2023-12-15 07:27:00,SystemResetWarning,0833.1,5.00,000.00,018.7,017.8,000.0,027.2,020.0,23.2,0001.3,0017.58,0010.62,0010.11
2023-12-15 07:28:00,SystemResetWarning,0833.1,5.00,000.00,018.7,017.7,000.0,027.2,020.0,23.1,0001.3,0017.42,0010.46,0009.96
2023-12-15 07:29:00,SystemResetWarning,0833.1,5.01,000.00,018.7,017.7,000.0,027.2,020.0,23.1,0001.1,0017.15,0010.37,0009.86
2023-12-15 07:30:00,SystemResetWarning,0833.0,5.01,000.00,018.7,017.7,000.0,027.2,020.0,23.1,0000.9,0016.39,0010.20,0009.73
2023-12-15 07:31:00,SystemResetWarning,0833.2,5.00,000.00,018.7,017.7,000.0,027.2,020.0,23.1,0000.7,0015.57,0009.95,0009.49
2023-12-15 07:32:00,SystemResetWarning,0833.2,5.00,000.00,018.7,017.7,000.0,027.2,020.0,23.1,0000.7,0014.63,0009.70,0009.25
2023-12-15 07:33:00,SystemResetWarning,0833.2,5.00,000.00,018.7,017.8,000.0,027.2,020.0,23.2,0000.6,0014.37,0009.51,0009.08
2023-12-15 07:34:00,SystemResetWarning,0833.2,5.00,000.00,018.7,017.7,000.0,027.2,020.0,23.1,0000.3,0014.01,0009.44,0009.01
2023-12-15 07:35:00,SystemResetWarning,0833.2,5.00,000.00,018.7,017.7,000.0,027.2,020.0,23.1,0000.2,0013.56,0009.39,0008.96
2023-12-15 07:36:00,SystemResetWarning,0833.2,5.00,000.00,018.7,017.7,000.0,027.2,020.0,23.1,0000.2,0013.61,0009.42,0008.99
2023-12-15 07:37:00,SystemResetWarning,0833.2,5.00,000.00,018.7,017.7,000.0,027.2,020.0,23.1,0000.3,0014.03,0009.46,0009.02
2023-12-15 07:38:00,SystemResetWarning,0833.2,5.00,000.00,018.7,017.7,000.0,027.2,020.0,23.0,0000.3,0014.38,0009.54,0009.08
2023-12-15 07:39:00,SystemResetWarning,0833.2,5.00,000.00,018.7,017.7,000.0,027.2,020.0,23.0,0000.4,0014.67,0009.56,0009.08
2023-12-15 07:40:00,SystemResetWarning,0833.3,5.00,000.00,018.7,017.7,000.0,027.1,020.0,23.1,0000.4,0014.44,0009.46,0008.98
2023-12-15 07:41:00,SystemResetWarning,0833.2,5.00,000.00,018.7,017.7,000.0,027.1,020.0,23.2,0000.3,0014.28,0009.31,0008.80
2023-12-15 07:42:00,SystemResetWarning,0833.2,5.00,000.00,018.7,017.7,000.0,027.1,020.0,23.3,0000.4,0015.12,0009.31,0008.80
2023-12-15 07:43:00,SystemResetWarning,0833.2,5.00,000.00,018.7,017.7,000.0,027.1,020.0,23.3,0000.5,0015.24,0009.34,0008.85
2023-12-15 07:44:00,SystemResetWarning,0833.2,5.00,000.00,018.7,017.7,000.0,027.1,020.0,23.4,0000.5,0015.54,0009.54,0009.03
2023-12-15 07:45:00,SystemResetWarning,0833.2,4.99,000.00,018.7,017.7,000.0,027.1,020.0,23.4,0000.7,0015.94,0009.82,0009.29
2023-12-15 07:46:00,SystemResetWarning,0833.3,5.00,000.00,018.7,017.7,000.0,027.1,020.0,23.4,0000.9,0016.27,0010.07,0009.54
2023-12-15 07:47:00,SystemResetWarning,0833.3,5.00,000.00,018.7,017.7,000.0,027.2,020.0,23.4,0000.9,0016.74,0010.34,0009.79
2023-12-15 07:48:00,SystemResetWarning,0833.4,5.00,000.00,018.7,017.7,000.0,027.1,020.0,23.4,0000.8,0016.69,0010.50,0009.93
2023-12-15 07:49:00,SystemResetWarning,0833.4,5.00,000.00,018.7,017.7,000.0,027.1,020.0,23.4,0000.7,0016.44,0010.47,0009.94
2023-12-15 07:50:00,SystemResetWarning,0833.3,5.01,000.00,018.7,017.7,000.0,027.1,020.0,23.5,0000.7,0015.98,0010.50,0009.98
2023-12-15 07:51:00,SystemResetWarning,0833.3,5.00,000.00,018.7,017.7,000.0,027.1,020.0,23.3,0000.8,0016.07,0010.62,0010.09
2023-12-15 07:52:00,SystemResetWarning,0833.3,5.01,000.00,018.7,017.7,000.0,027.1,020.0,23.3,0000.8,0016.58,0010.92,0010.37
2023-12-15 07:53:00,SystemResetWarning,0833.4,5.00,000.00,018.7,017.7,000.0,027.1,020.0,23.4,0000.8,0016.88,0011.20,0010.63
2023-12-15 07:54:00,SystemResetWarning,0833.3,5.00,000.00,018.7,017.7,000.0,027.1,020.0,23.5,0001.0,0016.75,0011.16,0010.56
2023-12-15 07:55:00,SystemResetWarning,0833.3,5.00,000.00,018.7,017.7,000.0,027.1,020.0,23.5,0001.0,0016.71,0011.09,0010.46
2023-12-15 07:56:00,SystemResetWarning,0833.3,5.00,000.00,018.7,017.7,000.0,027.1,020.0,23.4,0000.7,0016.79,0011.10,0010.46
2023-12-15 07:57:00,SystemResetWarning,0833.3,5.00,000.00,018.7,017.7,000.0,027.1,020.0,23.1,0000.5,0016.79,0011.11,0010.46
2023-12-15 07:58:00,SystemResetWarning,0833.3,5.00,000.00,018.7,017.7,000.0,027.1,020.0,23.1,0000.4,0016.67,0011.11,0010.46
2023-12-15 07:59:00,SystemResetWarning,0833.3,5.00,000.00,018.7,017.7,000.0,027.1,020.1,23.3,0000.2,0016.50,0010.93,0010.29
